Regional Weather Roundup
Issued by NWS

Home | Current Version | Previous Version | Text Only | Print | Product List | Glossary On
Versions: 1 2 3 4 5 6 7 8 9 10 11 12 13 14 15 16 17 18 19 20 21 22 23 24 25 26 27 28 29 30 31 32 33 34 35 36 37 38 39 40 41 42 43 44 45 46 47 48 49 50
000
ASUS46 KLOX 041113
RWRCA

SOUTHERN CALIFORNIA WEATHER ROUNDUP
NATIONAL WEATHER SERVICE OXNARD CALIFORNIA
400 AM PDT WED MAY 04 2016

NOTE: "FAIR" INDICATES FEW OR NO CLOUDS BELOW 12,000 FEET WITH NO
SIGNIFICANT WEATHER AND/OR OBSTRUCTIONS TO VISIBILITY.

  -  STATIONS PRECEEDED BY AN ASTERISK (*) ARE NOT NWS OR FAA
     STATIONS AND ARE NOT SUBJECT TO NWS AND FAA QUALITY CONTROL.

CAZ041-042-087-041200-
LA AND ORANGE COUNTY COASTAL AREAS


CITY           SKY/WX    TMP DP  RH WIND       PRES   REMARKS
L.A. DOWNTOWN  CLOUDY    57  54  89 CALM      29.93F
L.A. AIRPORT   MOCLDY    57  54  89 N3        29.93F
LONG BEACH     CLOUDY    59  56  89 SE5       29.92F

CITY           SKY/WX    TMP DP  RH WIND       PRES   REMARKS
AVALON           N/A     54 N/A N/A SE2         N/A
FULLERTON      CLOUDY    60  55  83 SE3       29.92F
*GETTY CENTER    N/A     52  52 100 NE3         N/A
HAWTHORNE      CLOUDY    57  54  89 CALM      29.93F
*LEO CARRILLO    N/A     56  54  93 NE5         N/A
*LOS ALAMITOS  FAIR      59  56  89 S3        29.92F
*REDONDO BEACH   N/A     57  55  90 CALM      29.92F
SANTA ANA      CLOUDY    59  55  87 VRB3      29.93F
STA MONICA APT CLOUDY    57  54  89 CALM      29.93F
*UCLA            N/A     54  50  87 CALM      29.90F

$$

CAZ547-548-048-041200-
LA COUNTY VALLEYS AND INLAND EMPIRE


CITY           SKY/WX    TMP DP  RH WIND       PRES   REMARKS
BURBANK        CLEAR     57  52  83 E5        29.92F
VAN NUYS       CLEAR     58  52  80 SE3       29.92F

CITY           SKY/WX    TMP DP  RH WIND       PRES   REMARKS
CORONA AIRPORT SUNNY     56  54  93 W7        29.94F
*CHATSWORTH      N/A     58  52  79 E3        29.91F
CHINO          CLEAR     56  53  90 W7        29.94  FOG
MARCH AFB      CLEAR     53  53 100 W3        29.93F
*NORTHRIDGE      N/A     57  50  77 NE1         N/A
ONTARIO        PTCLDY    57  53  86 SW6       29.93F FOG
*PASADENA        N/A     57  55  94 CALM        N/A
RIVERSIDE      CLEAR     58  52  80 CALM      29.93F
SAN BERNARDINO NOT AVBL
*SAN RAFAEL HI   N/A     54  54 100 CALM        N/A
*SAUGUS          N/A     60  52  75 CALM        N/A
*WHITEMAN AP   NOT AVBL
*WHITTIER HILL   N/A     54  54  99 S2          N/A
*WOODLAND HILL   N/A     54  50  87 E1          N/A

$$

CAZ054-055-041200-
LA AND SAN BERNARDINO COUNTY MOUNTAINS


CITY           SKY/WX    TMP DP  RH WIND       PRES   REMARKS
*BIG BEAR AIRP SUNNY     32  28  86 CALM      30.13F
*CHILAO          N/A     54  30  39 E15         N/A
SANDBERG       PTCLDY    57  37  47 S8        30.01F

$$

CAZ028-029-059-060-099-041200-
ANTELOPE VALLEY AND SURROUNDING AREAS


CITY           SKY/WX    TMP DP  RH WIND       PRES   REMARKS
LANCASTER      NOT AVBL
PALMDALE       CLEAR     58  36  43 S3        29.94F
*POPPY PARK      N/A     61  37  40 SW10        N/A

CITY           SKY/WX    TMP DP  RH WIND       PRES   REMARKS
29 PALMS       CLEAR     60  32  34 CALM      29.98S
BARSTOW/DAGGET CLEAR     64  37  36 W8        29.92S
BISHOP         MOCLDY    53  27  36 VRB3      29.98F
CHINA LAKE     CLEAR     56  26  31 CALM      29.91F
EDWARDS AFB    CLEAR     54  30  40 S5        29.91F
MOJAVE         CLEAR     59  32  36 CALM      29.95S
NEEDLES        CLEAR     71  39  31 SW5       29.86S
VICTORVILLE    CLEAR     59  36  41 CALM      29.95F

$$

CAZ039-040-041200-
VENTURA AND SANTA BARBARA COUNTY COAST


CITY           SKY/WX    TMP DP  RH WIND       PRES   REMARKS
CAMARILLO      CLOUDY    57  52  83 W9        29.93S
NWS OXNARD       N/A     56  52  88 SW3       29.92S
OXNARD AIRPORT CLOUDY    56  53  90 S5        29.93S
*POINT MUGU    CLOUDY    57  54  89 SE10      29.94R
SBA APT/GOLETA CLOUDY    54  52  93 CALM      29.92F FOG
*SANTA BARBARA   N/A     56  52  85 CALM      30.00F
*VENTURA         N/A     55  54  94 W3        29.91S

$$

CAZ044-045-041200-
VENTURA COUNTY VALLEYS


CITY           SKY/WX    TMP DP  RH WIND       PRES   REMARKS
*SIMI VALLEY     N/A     56  49  79 CALM      29.85F
*WESTLAKE VILL   N/A     49  46  88 CALM      29.89F
*OJAI            N/A     48  46  91 CALM      29.87R
*FILLMORE        N/A     51  46  84 CALM      29.81F

$$

CAZ053-041200-
VENTURA COUNTY MOUNTAINS


CITY           SKY/WX    TMP DP  RH WIND       PRES   REMARKS
*LOCKWOOD VLY    N/A     43  30  61 CALM        N/A
*ROSE VALLEY     N/A     39  36  87 MISG        N/A

$$

CAZ034-035-036-041200-
CENTRAL COAST AND SANTA YNEZ VALLEY


CITY           SKY/WX    TMP DP  RH WIND       PRES   REMARKS
SAN LUIS OBISP CLOUDY    56  52  86 S3        29.89F
SANTA MARIA    CLOUDY    53  53 100 CALM      29.91F FOG

CITY           SKY/WX    TMP DP  RH WIND       PRES   REMARKS
*CAL POLY SLO    N/A     54  52  94 CALM        N/A
*LOMPOC        CLOUDY    52  51  97 CALM      29.91F FOG
*PISMO BEACH     N/A     54  51  92 CALM      29.90F
*SANTA YNEZ    MOCLDY    48  46  93 CALM      29.91F

$$

CAZ037-038-051-041200-
SAN LUIS OBISPO COUNTY INTERIOR AND CUYAMA VALLEY


CITY           SKY/WX    TMP DP  RH WIND       PRES   REMARKS
*CUYAMA          N/A     52  44  73 NE1       29.82S
PASO ROBLES    CLOUDY    53  46  77 SE3       29.88F

$$

CAZ032-033-061-041200-
SOUTHERN DESERTS


CITY           SKY/WX    TMP DP  RH WIND       PRES   REMARKS
BLYTHE         CLEAR     67  30  25 N10       29.82F
IMPERIAL       CLEAR     73  38  27 NW5       29.79F
PALM SPRINGS   CLEAR     74  38  27 N5        29.84F
THERMAL        CLEAR     62  41  46 N3        29.79S

$$

ELSEWHERE ACROSS THE WESTERN UNITED STATES AND MEXICO


CITY           SKY/WX    TMP DP  RH WIND       PRES   REMARKS
DEATH VALLEY,    N/A     75  36  24 CALM        N/A
DENVER, CO     CLEAR     44  28  53 SW14      30.24F
GRAND CANYON,  PTCLDY    37  30  75 CALM      30.23F
HONOLULU, HI   MOCLDY    75  66  73 NE5       30.09F
KAHULUI, MAUI  CLEAR     73  64  73 NE6       30.08F
LAKE TAHOE, CA MOCLDY    36  34  92 CALM      30.08F
LAS VEGAS, NV  CLEAR     67  40  37 W6        29.90F
MAMMOTH LAKES, FAIR      38  31  77 N3        30.13F
MEXICO CITY, M PTCLDY    63  46  55 NE5       30.30R
PHOENIX, AZ    CLEAR     71  38  29 E7        29.86S
PORTLAND, OR   MOCLDY    53  49  86 NW7       30.05F
RENO, NV       MOCLDY    53  38  56 W5        30.02F
SALT LAKE CITY CLEAR     54  35  48 S10       30.13S
SAN DIEGO, CA  CLOUDY    62  54  74 NW5       29.96S
SAN FRANCISCO, CLOUDY    53  52  96 W9        29.90S
SAN JOSE, CA   CLOUDY    57  52  83 NW6       29.89F
SEATTLE, WA    CLOUDY    54  45  71 NE8       30.09F
TIJUANA, MEX   CLOUDY    59  54  82 NW6       29.97S FOG

$$

STATION/POSITION TIME  TEMP    WIND        PRES    VSBY  WAVE
                       AIR SEA DIR/SP/G                  HT/PER
                 (UTC) (F)     (DEG/KT/KT) (MB)    (MI)  (FT/S)
POINT ARGUELLO B NOT AVBL
WEST SANTA BARBA 1050   55 56  340/  8/ 10 1012.0F         5/13
POINT CONCEPTION NOT AVBL
EAST SANTA BARBA 1100   54 56  280/  4/  6 1014.0F
SANTA MONICA BAY 1050   56 61  210/  4/  8 1013.7F         3/13



USA.gov is the U.S. government's official web portal to all federal, state and local government web resources and services.